New York, NY

12:48 AM EDT on September 22, 2017 (GMT -0400)
La Guardia

Weather History for KLGA - November, 2010

Change the Weather History Date:

Tuesday, November 16, 2010

  Actual Average Record
Temperature  
Mean Temperature 57 °F 48 °F  
Max Temperature 61 °F 55 °F 72 °F (1990)
Min Temperature 52 °F 42 °F 22 °F (1967)
Degree Days  
Heating Degree Days 8 17  
Month to date heating degree days 234 233  
Since 1 July heating degree days 399 505  
Cooling Degree Days 0 0  
Month to date cooling degree days 0 0  
Year to date cooling degree days 1721 1213  
Growing Degree Days 6 (Base 50)    
Moisture  
Dew Point 50 °F    
Average Humidity 84    
Maximum Humidity 96    
Minimum Humidity 72    
Precipitation  
Precipitation 0.37 in 0.11 in 2.32 in (1985)
Month to date precipitation 1.34 1.75  
Year to date precipitation 37.07 39.51  
Snow  
Snow 0.00 in 0.00 in 0.30 in (1985)
Month to date snowfall T 0.0  
Since 1 July snowfall T 0.0  
Snow Depth 0.00 in    
Sea Level Pressure  
Sea Level Pressure 29.97 in    
Wind  
Wind Speed 10 mph (East)    
Max Wind Speed 25 mph    
Max Gust Speed 35 mph    
Visibility 7 miles    
Events Rain    
T = Trace of Precipitation, MM = Missing Value Source: NWS Daily Summary

Daily Weather History Graph

Daily Weather History Graph

Search for Another Location

Airport or City:

Trip Planner

Search our weather history database for the weather conditions in past years. The results will help you decide how hot, cold, wet, or windy it might be!

Date:

Astronomy

Nov. 16, 2010 Rise Set
Actual Time 6:43 AM EST 4:36 PM EST
Civil Twilight 6:14 AM EST 5:05 PM EST
Nautical Twilight 5:40 AM EST 5:39 PM EST
Astronomical Twilight 5:08 AM EST 6:11 PM EST
Moon 1:43 PM EST (11/16) 1:41 AM EST (11/16)
Length of Visible Light 10h 51m
Length of Day
9h 52m
Waxing Gibbous, 77% of the Moon is Illuminated
Nov 16
Waxing Gibbous
Nov 21
Full
Nov 28
Last Quarter
Dec 5
New
Dec 13
First Quarter

Hourly Weather History & Observations

Time (EST) Temp. Dew Point Humidity Pressure Visibility Wind Dir Wind Speed Gust Speed Precip Events Conditions
12:51 AM 53.1 °F 48.9 °F 86% 30.04 in 6.0 mi ENE 4.6 mph - N/A   Overcast
1:51 AM 53.1 °F 48.9 °F 86% 30.05 in 6.0 mi East 4.6 mph - N/A   Overcast
2:43 AM 53.6 °F 48.2 °F 82% 30.03 in 6.0 mi East 6.9 mph - N/A   Overcast
2:51 AM 53.1 °F 50.0 °F 89% 30.04 in 6.0 mi ESE 4.6 mph - N/A   Overcast
3:06 AM 53.6 °F 50.0 °F 88% 30.04 in 5.0 mi Calm Calm - 0.00 in Rain Light Rain
3:24 AM 53.6 °F 50.0 °F 88% 30.04 in 5.0 mi NNE 3.5 mph - 0.01 in Rain Light Rain
3:31 AM 53.6 °F 50.0 °F 88% 30.04 in 5.0 mi NNE 3.5 mph - 0.01 in Rain Light Rain
3:51 AM 53.1 °F 50.0 °F 89% 30.05 in 5.0 mi NE 3.5 mph - 0.01 in Rain Light Rain
4:14 AM 51.8 °F 48.2 °F 88% 30.05 in 4.0 mi ENE 5.8 mph - 0.01 in Rain Light Rain
4:21 AM 53.6 °F 48.2 °F 82% 30.05 in 4.0 mi ENE 6.9 mph - 0.02 in Rain Light Rain
4:42 AM 51.8 °F 48.2 °F 88% 30.05 in 4.0 mi ENE 8.1 mph - 0.07 in Rain Light Rain
4:51 AM 52.0 °F 50.0 °F 93% 30.06 in 4.0 mi ENE 6.9 mph - 0.07 in Rain Light Rain
5:51 AM 52.0 °F 50.0 °F 93% 30.06 in 5.0 mi NE 5.8 mph - 0.02 in Rain Light Rain
6:51 AM 53.1 °F 50.0 °F 89% 30.05 in 5.0 mi East 6.9 mph - 0.00 in   Overcast
7:51 AM 54.0 °F 50.0 °F 86% 30.06 in 6.0 mi ESE 5.8 mph - 0.00 in Rain Light Rain
8:27 AM 53.6 °F 48.2 °F 82% 30.06 in 6.0 mi ESE 9.2 mph - 0.00 in   Haze
8:51 AM 55.0 °F 50.0 °F 83% 30.06 in 5.0 mi East 10.4 mph - 0.00 in   Haze
9:51 AM 55.0 °F 50.0 °F 83% 30.06 in 9.0 mi ESE 6.9 mph - 0.00 in   Overcast
10:51 AM 57.0 °F 48.9 °F 74% 30.05 in 10.0 mi Variable 5.8 mph - N/A   Overcast
11:17 AM 57.2 °F 48.2 °F 72% 30.04 in 10.0 mi Variable 6.9 mph - N/A   Overcast
11:51 AM 57.9 °F 48.9 °F 72% 30.04 in 10.0 mi SE 6.9 mph - 0.00 in   Overcast
12:51 PM 57.0 °F 48.0 °F 72% 30.01 in 10.0 mi SSE 10.4 mph - N/A   Overcast
1:51 PM 57.0 °F 48.0 °F 72% 29.99 in 10.0 mi SE 10.4 mph - N/A   Overcast
2:51 PM 57.0 °F 48.0 °F 72% 29.97 in 10.0 mi ESE 12.7 mph - 0.00 in   Overcast
3:51 PM 57.0 °F 48.0 °F 72% 29.99 in 10.0 mi ESE 8.1 mph - 0.00 in   Overcast
4:03 PM 55.4 °F 48.2 °F 77% 29.97 in 10.0 mi East 5.8 mph - N/A   Overcast
4:05 PM 55.4 °F 48.2 °F 77% 29.98 in 10.0 mi East 6.9 mph - N/A   Overcast
4:51 PM 57.0 °F 48.9 °F 74% 29.95 in 10.0 mi East 10.4 mph - N/A   Overcast
5:43 PM 55.4 °F 50.0 °F 82% 29.94 in 10.0 mi East 9.2 mph - N/A   Overcast
5:51 PM 55.9 °F 50.0 °F 80% 29.94 in 10.0 mi East 10.4 mph - N/A   Overcast
6:51 PM 57.0 °F 50.0 °F 77% 29.91 in 10.0 mi ESE 12.7 mph - 0.00 in   Overcast
7:09 PM 57.2 °F 51.8 °F 82% 29.90 in 10.0 mi ESE 15.0 mph 21.9 mph N/A   Overcast
7:51 PM 57.9 °F 51.1 °F 78% 29.89 in 10.0 mi SE 12.7 mph 21.9 mph N/A   Overcast
8:51 PM 59.0 °F 53.1 °F 81% 29.85 in 9.0 mi SE 18.4 mph 27.6 mph 0.01 in Rain Light Rain
9:06 PM 57.2 °F 53.6 °F 88% 29.83 in 6.0 mi ESE 17.3 mph 25.3 mph 0.03 in Rain Rain
9:19 PM 57.2 °F 53.6 °F 88% 29.82 in 6.0 mi SE 17.3 mph - 0.07 in Rain Rain
9:51 PM 59.0 °F 54.0 °F 83% 29.84 in 7.0 mi SE 12.7 mph - 0.12 in Rain Light Rain
10:32 PM 57.2 °F 55.4 °F 94% 29.75 in 5.0 mi ESE 15.0 mph 28.8 mph 0.10 in Rain Rain
10:51 PM 60.1 °F 55.9 °F 86% 29.74 in 8.0 mi SE 23.0 mph 28.8 mph 0.12 in Rain Light Rain
11:51 PM 61.0 °F 57.0 °F 87% 29.70 in 10.0 mi SSE 20.7 mph 34.5 mph 0.02 in Rain Light Rain